Wind_Speed
17 16 16 17 16 16 16 16 17 17 18 19 19 18 18 19 20 20 19 19 19 19 20 19 20 20 21 21 22 22 23 24 25 25 25 25 26 27 28 28 29 29 30
19 17 18 17 17 16 16 16 16 16 18 19 19 18 19 19 20 21 19 19 19 19 19 19 20 20 20 20 20 21 22 23 24 24 24 24 26 27 28 28 29 29 29
19 18 17 16 17 17 16 17 18 18 18 19 18 19 20 20 20 20 20 20 19 19 20 20 20 20 21 21 20 20 21 22 23 23 23 23 24 26 27 28 28 29 29
18 18 17 17 17 17 17 18 18 18 19 19 19 20 20 19 19 20 20 19 19 20 20 20 20 21 21 21 21 21 22 23 23 24 24 24 25 25 26 27 27 27 29
18 18 17 17 17 18 18 18 18 18 19 19 18 19 19 19 19 19 19 19 19 19 19 20 19 20 20 21 21 22 23 23 23 24 24 25 25 25 25 25 26 26 28
18 18 18 17 18 18 18 18 18 18 18 18 18 19 18 18 18 18 19 19 19 19 19 19 20 20 20 21 21 22 23 24 24 24 25 25 26 25 25 24 25 25 26
17 17 17 17 17 18 18 18 18 18 17 17 18 18 19 19 17 18 19 18 18 18 18 19 19 20 20 21 22 23 23 24 24 24 24 25 25 25 25 25 25 26 25
17 18 18 18 18 18 18 18 17 17 18 18 19 19 19 20 19 19 18 17 17 17 17 18 19 19 20 20 21 23 22 23 23 23 24 24 24 25 25 25 25 25 25
17 18 18 18 18 18 17 17 17 17 19 19 19 18 18 18 19 19 18 18 17 17 18 18 19 19 19 20 21 22 22 22 23 23 24 24 25 25 25 25 24 24 23
18 17 17 17 16 16 16 16 17 18 18 19 19 18 18 18 18 17 17 17 18 18 18 18 18 18 19 20 21 21 21 22 23 23 23 23 24 24 24 23 23 23 22
17 17 16 16 16 17 17 17 17 17 17 17 17 18 18 18 17 17 16 17 17 17 18 18 18 18 19 19 21 21 22 22 22 23 23 24 24 24 23 22 22 22 21
17 17 17 16 16 16 16 16 16 16 17 16 16 16 16 16 16 16 16 17 17 17 17 17 18 19 19 20 21 21 21 21 22 22 23 23 22 22 22 22 21 21 21
17 17 17 16 16 15 15 15 15 15 15 15 14 14 14 15 16 15 16 17 17 18 18 18 18 19 19 20 20 20 20 20 21 21 21 21 21 21 21 21 20 20 20
16 16 16 16 15 15 15 15 14 14 14 13 13 14 14 14 14 14 15 16 17 17 17 16 16 17 19 18 18 19 19 20 21 20 20 20 20 20 19 19 19 19 19
14 14 14 15 15 14 14 14 14 14 13 12 13 13 13 12 13 14 14 15 15 15 15 15 16 17 17 17 17 17 18 19 19 19 20 19 19 19 19 19 19 19 19
15 15 15 14 13 12 12 12 13 13 11 12 12 12 11 11 12 12 13 13 14 14 15 15 16 16 17 16 17 17 17 18 19 19 20 20 20 19 19 18 18 18 18
14 14 13 13 12 11 11 11 11 11 11 10 10 10 10 10 11 11 12 13 14 14 14 14 14 15 16 16 16 17 18 19 19 19 20 19 19 19 19 19 19 19 19
12 11 11 11 10 10 10 10 11 10 10 10 10 10 10 11 11 11 12 13 13 13 13 13 13 14 15 16 16 17 19 19 19 19 19 19 20 20 19 19 19 20 20
9 8 8 9 9 10 9 9 10 10 10 10 10 10 10 9 10 11 12 12 12 13 12 13 13 14 15 16 16 17 19 19 19 19 20 20 20 20 21 20 20 20 20
7 6 7 8 8 8 8 8 9 9 9 10 9 9 9 9 10 10 11 11 12 12 13 13 14 14 15 16 17 18 19 19 19 19 20 21 21 22 22 22 21 21 20
6 6 6 7 7 7 7 8 8 8 9 9 9 9 8 8 9 10 10 11 11 12 12 13 14 15 16 16 17 18 19 19 19 20 21 21 21 22 22 22 22 22 22
5 5 5 6 6 6 7 7 8 8 8 8 8 7 7 8 9 9 10 10 11 11 12 13 14 15 16 16 17 18 19 20 20 21 21 21 22 23 23 23 24 24 24
4 5 4 4 5 5 6 6 7 7 7 7 6 6 7 8 9 9 9 10 11 11 12 13 13 15 17 17 18 19 20 20 20 21 22 23 24 24 24 25 25 26 26
4 4 4 4 4 4 4 4 5 5 5 5 5 5 6 7 8 8 9 10 10 11 12 13 15 16 17 18 18 20 21 21 21 22 23 24 24 25 26 26 26 27 26
3 3 3 3 3 3 4 4 5 5 4 4 5 5 5 7 8 8 9 10 11 12 13 14 16 17 18 19 20 21 21 21 23 24 25 25 26 26 27 27 27 28 27
2 3 3 2 2 3 4 4 4 4 4 4 5 5 6 7 8 9 10 11 12 13 14 15 17 18 19 20 21 22 22 23 24 25 26 26 27 27 27 28 29 28 28
Wind_Direction
268 269 273 276 277 277 281 279 278 280 284 287 289 287 287 288 286 288 290 291 294 296 297 298 299 299 295 294 292 291 290 288 286 286 286 285 283 281 280 279 277 275 273
268 270 273 274 274 274 276 277 277 281 286 290 290 290 290 290 289 289 290 292 294 295 295 297 298 299 298 299 297 295 294 293 291 289 288 287 286 283 282 280 277 275 273
269 270 272 274 274 274 275 275 279 285 288 287 286 288 289 293 294 294 294 294 295 296 298 297 297 297 295 297 299 300 299 297 295 293 292 291 289 285 284 282 279 276 274
271 273 275 276 276 276 275 276 278 280 283 284 285 289 290 291 292 294 295 296 296 297 298 299 298 297 296 298 300 301 300 298 296 295 294 294 293 290 286 283 281 279 276
273 273 276 275 274 275 275 276 275 278 280 283 286 286 287 287 289 291 293 295 297 297 297 297 300 300 300 299 300 301 301 299 297 296 294 294 293 292 290 288 285 282 279
274 274 273 273 273 274 275 276 274 273 277 281 286 287 286 288 288 289 291 293 293 293 294 297 299 300 300 300 301 301 302 302 299 298 297 294 293 291 289 288 287 285 283
272 272 273 272 272 275 277 278 273 272 274 278 284 288 286 286 288 288 290 291 290 290 293 297 297 298 299 299 302 303 302 303 302 302 301 298 294 293 293 291 289 287 285
272 272 272 272 272 273 276 278 275 275 278 278 282 285 286 285 285 291 293 293 291 290 293 296 296 297 300 301 303 304 303 303 304 304 305 303 299 296 295 294 291 289 287
273 273 274 273 272 272 275 279 279 281 282 285 284 286 289 292 291 290 290 293 293 291 293 295 297 297 299 302 304 304 303 304 305 305 305 306 304 301 299 297 293 290 289
271 272 275 274 274 276 276 278 279 281 283 288 289 290 291 293 292 292 293 291 292 292 292 295 297 299 300 302 304 304 304 306 306 305 306 308 309 306 304 300 296 292 289
272 272 274 272 274 275 278 279 282 282 283 288 289 287 289 290 292 290 293 293 295 295 295 299 301 302 303 305 306 306 306 306 307 308 310 310 310 309 308 304 300 296 294
273 269 271 272 276 277 278 278 282 285 284 285 286 286 289 291 294 293 292 290 296 301 300 305 308 307 306 306 307 308 309 309 310 311 312 312 312 311 310 308 306 301 296
274 273 272 273 275 278 276 278 281 286 285 282 283 284 287 293 297 295 296 298 302 306 305 307 308 311 312 311 310 310 311 313 313 314 315 315 316 315 313 311 309 305 302
272 272 272 272 275 276 277 277 281 283 281 282 283 286 289 294 297 298 300 303 305 308 307 307 310 313 314 314 313 313 313 314 314 315 316 317 318 317 317 315 313 311 308
270 270 273 277 275 277 278 279 281 280 279 282 284 287 291 294 297 301 304 307 310 312 313 312 313 314 316 316 318 318 319 319 319 319 318 318 318 317 317 316 314 311 310
275 273 276 278 277 278 281 282 283 281 279 282 283 288 291 293 298 304 307 310 312 314 317 315 314 315 318 321 321 323 326 325 323 322 321 320 319 317 315 315 315 313 310
279 276 274 276 279 281 284 282 285 284 287 286 287 287 289 296 305 307 310 311 313 315 317 316 315 317 320 322 324 325 328 328 326 324 324 324 321 319 317 315 313 311 310
277 272 268 271 277 283 283 281 284 286 287 289 288 284 291 295 301 306 309 313 316 319 319 318 319 322 322 324 327 327 329 329 327 326 327 326 324 322 319 316 313 311 309
282 273 268 272 276 283 286 285 290 292 293 294 298 296 295 299 301 302 307 314 316 319 320 322 323 325 324 325 327 327 327 327 326 325 326 327 326 325 321 318 316 314 313
293 280 272 278 282 287 291 291 294 293 296 299 298 301 298 301 306 306 307 312 316 319 320 322 321 321 323 325 325 326 328 329 328 326 325 324 324 325 324 322 320 318 314
290 278 274 280 288 291 293 292 295 299 304 308 304 307 306 307 311 312 314 314 316 319 321 322 322 324 327 328 326 327 328 328 329 328 326 325 325 325 325 324 323 321 318
290 280 280 285 293 294 296 297 300 305 309 308 310 309 309 312 316 317 319 319 319 320 323 324 324 326 330 331 330 330 329 327 328 327 326 326 325 325 324 324 323 321 319
298 294 292 298 301 301 301 299 305 311 314 310 311 309 308 313 320 322 323 323 326 325 327 329 331 333 334 333 332 330 330 330 329 329 328 326 325 324 323 321 320 320 318
303 302 291 298 300 301 307 313 318 320 322 319 319 318 319 321 325 327 331 332 332 331 332 334 337 336 335 333 332 331 329 328 329 328 328 327 325 324 324 323 321 319 318
301 302 303 307 311 317 326 333 338 339 337 335 333 330 332 336 335 338 340 339 337 336 337 339 338 336 336 334 332 332 332 330 329 328 328 329 327 325 325 324 323 321 318
302 307 308 317 329 338 347 350 351 348 344 342 343 346 349 348 344 340 337 336 336 339 340 339 338 337 336 336 335 333 332 331 330 330 331 331 330 328 326 325 323 321 319
Height
5828 5827 5827 5827 5826 5826 5826 5826 5826 5826 5825 5824 5823 5822 5821 5820 5820 5819 5817 5816 5814 5812 5811 5809 5808 5805 5803 5801 5800 5798 5796 5794 5793 5791 5789 5787 5785 5784 5782 5780 5780 5778 5777
5823 5823 5823 5822 5822 5822 5822 5822 5822 5821 5821 5820 5819 5818 5817 5816 5815 5813 5812 5811 5810 5808 5806 5805 5803 5800 5798 5796 5794 5792 5790 5788 5786 5785 5783 5781 5779 5777 5774 5773 5771 5770 5769
5819 5819 5818 5818 5818 5818 5818 5818 5817 5817 5817 5816 5815 5814 5813 5811 5810 5809 5807 5806 5805 5803 5802 5799 5797 5796 5794 5792 5789 5787 5785 5783 5780 5778 5776 5774 5772 5770 5768 5765 5764 5762 5761
5815 5815 5814 5814 5814 5814 5814 5813 5813 5813 5812 5811 5810 5809 5808 5807 5806 5805 5803 5802 5800 5799 5797 5794 5793 5791 5789 5787 5785 5782 5780 5777 5775 5772 5770 5768 5765 5763 5761 5759 5757 5755 5754
5811 5810 5810 5810 5809 5809 5809 5809 5809 5808 5808 5807 5805 5804 5803 5802 5800 5800 5799 5797 5795 5794 5792 5791 5789 5786 5784 5782 5779 5777 5774 5772 5769 5766 5764 5761 5758 5756 5754 5752 5750 5748 5747
5806 5806 5806 5806 5805 5805 5804 5804 5804 5803 5803 5802 5801 5799 5798 5796 5795 5794 5794 5792 5790 5789 5787 5786 5784 5781 5779 5777 5774 5772 5769 5766 5763 5761 5758 5755 5752 5749 5747 5746 5744 5742 5740
5802 5802 5801 5801 5800 5800 5799 5798 5798 5798 5797 5797 5796 5794 5793 5792 5790 5789 5788 5787 5785 5784 5783 5781 5779 5777 5774 5772 5769 5767 5764 5761 5758 5755 5752 5749 5746 5743 5741 5739 5737 5735 5734
5797 5797 5796 5796 5795 5795 5794 5793 5793 5792 5792 5791 5790 5790 5788 5787 5786 5784 5783 5782 5780 5779 5778 5776 5774 5772 5769 5767 5764 5761 5759 5755 5752 5749 5746 5743 5740 5737 5734 5732 5730 5729 5727
5793 5792 5791 5791 5790 5790 5790 5789 5788 5787 5787 5786 5784 5784 5783 5781 5780 5780 5779 5777 5776 5775 5773 5771 5769 5766 5764 5762 5759 5756 5753 5750 5747 5744 5741 5737 5734 5731 5728 5726 5724 5722 5721
5788 5787 5786 5786 5785 5785 5785 5784 5783 5782 5782 5781 5780 5779 5778 5777 5776 5775 5774 5773 5771 5770 5768 5766 5764 5761 5759 5757 5754 5751 5748 5745 5742 5739 5735 5732 5728 5725 5722 5720 5717 5715 5714
5782 5782 5781 5781 5781 5780 5780 5779 5778 5777 5777 5776 5775 5774 5772 5772 5771 5770 5769 5768 5766 5764 5763 5761 5759 5757 5754 5751 5749 5746 5743 5740 5737 5734 5730 5727 5723 5720 5717 5714 5711 5709 5707
5777 5777 5777 5776 5776 5775 5775 5774 5774 5773 5772 5771 5770 5769 5768 5767 5767 5766 5764 5763 5762 5760 5758 5756 5754 5752 5749 5747 5744 5742 5739 5735 5732 5729 5725 5722 5719 5715 5712 5709 5706 5703 5701
5773 5772 5772 5772 5771 5771 5770 5769 5769 5768 5768 5767 5766 5765 5765 5764 5763 5762 5761 5759 5758 5755 5753 5751 5749 5747 5745 5742 5740 5737 5734 5731 5727 5724 5721 5718 5714 5711 5707 5704 5701 5699 5696
5768 5768 5767 5767 5767 5766 5766 5765 5765 5764 5764 5763 5763 5762 5761 5760 5759 5758 5757 5755 5753 5751 5748 5746 5745 5743 5740 5738 5735 5732 5729 5726 5723 5720 5717 5713 5710 5707 5703 5700 5697 5695 5692
5763 5763 5763 5763 5763 5762 5762 5761 5761 5760 5760 5760 5759 5758 5757 5756 5755 5754 5753 5751 5749 5747 5744 5742 5741 5739 5736 5734 5731 5728 5725 5722 5719 5716 5713 5709 5706 5703 5700 5697 5694 5691 5688
5759 5759 5759 5759 5759 5759 5758 5758 5757 5757 5756 5756 5756 5755 5754 5753 5752 5751 5749 5748 5746 5743 5741 5739 5737 5735 5733 5730 5728 5725 5722 5718 5715 5712 5709 5705 5702 5699 5696 5693 5690 5687 5684
5755 5755 5755 5755 5755 5755 5755 5754 5754 5754 5753 5753 5752 5752 5751 5750 5749 5748 5746 5745 5743 5740 5738 5736 5734 5732 5729 5727 5724 5721 5718 5715 5712 5708 5705 5702 5698 5695 5692 5689 5686 5683 5680
5752 5751 5751 5752 5752 5752 5752 5751 5751 5751 5750 5750 5749 5748 5747 5747 5746 5745 5743 5742 5740 5737 5735 5733 5731 5728 5726 5724 5721 5718 5715 5712 5708 5705 5701 5698 5694 5691 5688 5685 5682 5679 5676
5749 5748 5749 5749 5749 5750 5749 5749 5748 5748 5747 5747 5746 5745 5744 5743 5743 5742 5741 5739 5737 5735 5733 5730 5728 5726 5723 5720 5718 5715 5712 5708 5705 5702 5698 5694 5691 5687 5684 5681 5678 5675 5672
5747 5747 5747 5747 5748 5748 5747 5747 5746 5745 5744 5744 5743 5742 5741 5741 5740 5739 5738 5736 5734 5732 5730 5727 5725 5723 5720 5717 5715 5712 5709 5705 5702 5698 5695 5691 5687 5684 5680 5677 5673 5670 5667
5745 5745 5745 5746 5745 5745 5745 5744 5743 5743 5742 5741 5740 5739 5739 5738 5737 5736 5735 5733 5731 5729 5727 5725 5722 5720 5717 5714 5712 5708 5705 5702 5698 5695 5691 5687 5684 5680 5676 5673 5669 5665 5661
5745 5744 5744 5744 5743 5743 5743 5742 5741 5741 5740 5739 5738 5737 5737 5736 5735 5734 5732 5731 5729 5726 5724 5722 5720 5717 5714 5712 5708 5705 5702 5698 5695 5691 5687 5684 5680 5676 5672 5668 5664 5660 5656
5744 5743 5743 5742 5742 5742 5741 5740 5740 5739 5738 5737 5736 5735 5735 5734 5733 5732 5730 5729 5727 5725 5723 5720 5718 5715 5712 5709 5706 5702 5699 5695 5691 5688 5684 5680 5676 5671 5668 5663 5659 5655 5651
5743 5742 5742 5742 5741 5741 5740 5739 5738 5738 5737 5736 5735 5734 5734 5733 5732 5730 5729 5727 5725 5723 5721 5718 5715 5713 5710 5706 5703 5700 5696 5692 5688 5684 5679 5675 5671 5667 5662 5658 5653 5649 5644
5742 5742 5742 5741 5741 5740 5739 5739 5738 5737 5736 5735 5735 5734 5733 5732 5731 5729 5727 5726 5724 5721 5719 5716 5713 5710 5707 5704 5700 5697 5693 5689 5684 5680 5675 5671 5666 5662 5657 5652 5647 5643 5638
5742 5742 5741 5741 5740 5739 5739 5738 5737 5737 5736 5735 5735 5734 5733 5731 5730 5728 5727 5724 5722 5720 5717 5714 5711 5708 5705 5701 5697 5693 5689 5685 5680 5675 5670 5666 5661 5656 5651 5647 5642 5637 5632